Hourly Data Report for October 12, 2013

All times are specified in Local Standard Time (LST). Add 1 hour to adjust for Daylight Saving Time where and when it is observed.

CHARLOTTETOWN A
PRINCE EDWARD ISLAND

46°17'21.000" N
63°07'09.000" W
48.50 m
8300301
71706
YYG

Download Data

Hourly Data (October 2013)
Hourly Data Report for October 12, 2013
Temp Definition
°C
Dew Point Temp Definition
°C
Rel Hum Definition
%
Wind Dir Definition
10's deg

Wind Spd Definition
km/h
Visibility Definition
km
Stn Press Definition
kPa
Hmdx Definition


Wind Chill Definition


Weather Definition


TIME
00:00 Legend Double Dagger 6.9 4.4 84 2 13 24.1 101.93     LegendNANA
01:00 Legend Double Dagger 6.8 3.4 79 4 11 24.1 101.97     LegendNANA
02:00 Legend Double Dagger 4.8 1.8 81 3 11 24.1 101.98     Mainly Clear
03:00 Legend Double Dagger 5.3 2.3 81 36 8 24.1 102.02     LegendNANA
04:00 Legend Double Dagger 4.4 1.6 82 2 10 24.1 102.09     LegendNANA
05:00 Legend Double Dagger 5.1 1.4 77 36 7 24.1 102.14     Mostly Cloudy
06:00 Legend Double Dagger 4.3 1.0 79 2 11 24.1 102.19     LegendNANA
07:00 Legend Double Dagger 6.0 1.9 75 1 13 24.1 102.26     LegendNANA
08:00 Legend Double Dagger 7.7 2.2 68 3 24 24.1 102.29     Mainly Clear
09:00 Legend Double Dagger 8.5 1.7 62 2 31 24.1 102.31     LegendNANA
10:00 Legend Double Dagger 9.2 1.6 59 1 24 24.1 102.38     LegendNANA
11:00 Legend Double Dagger 8.6 1.1 59 2 23 24.1 102.41     Mostly Cloudy
12:00 Legend Double Dagger 7.8 0.5 60 2 25 24.1 102.42     LegendNANA
13:00 Legend Double Dagger 7.8 0.8 61 2 21 24.1 102.39     LegendNANA
14:00 Legend Double Dagger 7.6 0.1 59 36 15 24.1 102.39     Mostly Cloudy
15:00 Legend Double Dagger 7.5 0.5 61 1 16 24.1 102.40     LegendNANA
16:00 Legend Double Dagger 7.3 1.0 64 3 15 24.1 102.41     LegendNANA
17:00 Legend Double Dagger 7.2 1.1 65 2 5 24.1 102.41     Mainly Clear
18:00 Legend Double Dagger 4.7 0.5 74 33 7 24.1 102.42     LegendNANA
19:00 Legend Double Dagger 1.6 0.3 91 32 5 24.1 102.44     LegendNANA
20:00 Legend Double Dagger 2.7 0.8 87 25 2 24.1 102.45     Mostly Cloudy
21:00 Legend Double Dagger -0.1 -0.7 96 31 4 24.1 102.48   -1 LegendNANA
22:00 Legend Double Dagger -0.5 -0.9 97 30 8 24.1 102.48   -3 LegendNANA
23:00 Legend Double Dagger -1.0 -1.4 97 31 6 24.1 102.48   -3 Mainly Clear

Notes on Data Quality.

Legend

  • E = Estimated
  • M = Missing
  • NA = Not Available
  • ‡ = Partner data that is not subject to review by the National Climate Archives
Date modified: